EVY23 YSCB-YMAV

Flight info

Callsign EVY23
Flight time 0h 52m
Altitude 32000
Route TANTA Q29 ML
Aircraft B38M/M-SADE2E3FGHIJ1J3J4J7M3P2RWXYZ/LB1D1

Departure

Time 2026-04-26 13:18
Airport Canberra Airport (YSCB)

Arrival

Time 2026-04-26 14:10
Airport Melbourne Avalon International Airport (YMAV)
Time Latitude Longitude Altitude Speed Heading
2026-04-26 13:04 -35.30379 149.19959 1882 ft 0 kts 124°
2026-04-26 13:12 -35.30380 149.19960 1882 ft 1 kts 124°
2026-04-26 13:13 -35.30393 149.19973 1878 ft 6 kts 162°
2026-04-26 13:13 -35.30442 149.19912 1882 ft 17 kts 285°
2026-04-26 13:13 -35.30358 149.19791 1881 ft 20 kts 312°
2026-04-26 13:13 -35.30270 149.19649 1879 ft 22 kts 302°
2026-04-26 13:14 -35.30255 149.19619 1877 ft 0 kts 301°
2026-04-26 13:14 -35.30254 149.19618 1877 ft 1 kts 301°
2026-04-26 13:14 -35.30241 149.19595 1880 ft 4 kts 316°
2026-04-26 13:14 -35.30215 149.19591 1879 ft 5 kts
2026-04-26 13:15 -35.30156 149.19599 1882 ft 11 kts 357°
2026-04-26 13:15 -35.30056 149.19594 1876 ft 18 kts 359°
2026-04-26 13:15 -35.29918 149.19592 1882 ft 21 kts 359°
2026-04-26 13:15 -35.29814 149.19592 1879 ft 23 kts 359°
2026-04-26 13:16 -35.29629 149.19587 1882 ft 11 kts 342°
2026-04-26 13:16 -35.29588 149.19506 1880 ft 13 kts 287°
2026-04-26 13:16 -35.29613 149.19446 1882 ft 10 kts 194°
2026-04-26 13:16 -35.29689 149.19443 1882 ft 13 kts 180°
2026-04-26 13:17 -35.30796 149.19443 1882 ft 145 kts 180°
2026-04-26 13:17 -35.31940 149.19436 2137 ft 174 kts 180°
2026-04-26 13:18 -35.34324 149.19360 3776 ft 173 kts 186°
2026-04-26 13:18 -35.35575 149.19093 4261 ft 195 kts 193°
2026-04-26 13:18 -35.38539 149.18304 5399 ft 238 kts 192°
2026-04-26 13:19 -35.40226 149.17860 5997 ft 258 kts 192°
2026-04-26 13:19 -35.42038 149.17383 6687 ft 273 kts 192°
2026-04-26 13:19 -35.43895 149.16895 7653 ft 274 kts 192°
2026-04-26 13:19 -35.45785 149.16398 8511 ft 281 kts 192°
2026-04-26 13:20 -35.47715 149.15890 9410 ft 286 kts 192°
2026-04-26 13:20 -35.49685 149.15372 10265 ft 293 kts 192°
2026-04-26 13:20 -35.51725 149.14756 10775 ft 312 kts 202°
2026-04-26 13:20 -35.53564 149.13273 11330 ft 325 kts 226°
2026-04-26 13:21 -35.54950 149.11049 12036 ft 333 kts 235°
2026-04-26 13:21 -35.55854 149.09504 12568 ft 337 kts 235°
2026-04-26 13:21 -35.57695 149.06340 13822 ft 343 kts 236°
2026-04-26 13:21 -35.59084 149.03932 14673 ft 348 kts 236°
2026-04-26 13:22 -35.60492 149.01487 15521 ft 352 kts 236°
2026-04-26 13:22 -35.61912 148.99018 16366 ft 357 kts 236°
2026-04-26 13:22 -35.63352 148.96509 17182 ft 362 kts 237°
2026-04-26 13:22 -35.64815 148.93959 17994 ft 366 kts 237°
2026-04-26 13:23 -35.66292 148.91385 18754 ft 371 kts 237°
2026-04-26 13:23 -35.67790 148.88770 19424 ft 375 kts 237°
2026-04-26 13:23 -35.69301 148.86133 20132 ft 379 kts 237°
2026-04-26 13:23 -35.70823 148.83471 20813 ft 383 kts 237°
2026-04-26 13:24 -35.72341 148.80814 21483 ft 386 kts 237°
2026-04-26 13:24 -35.73892 148.78099 22144 ft 390 kts 237°
2026-04-26 13:24 -35.75459 148.75351 22811 ft 394 kts 237°
2026-04-26 13:24 -35.77040 148.72578 23470 ft 397 kts 237°
2026-04-26 13:25 -35.78634 148.69781 24075 ft 401 kts 237°
2026-04-26 13:25 -35.80240 148.66960 24601 ft 404 kts 236°
2026-04-26 13:25 -35.81861 148.64110 25134 ft 407 kts 236°
2026-04-26 13:25 -35.83490 148.61244 25646 ft 410 kts 236°
2026-04-26 13:26 -35.85132 148.58351 26167 ft 413 kts 236°
2026-04-26 13:26 -35.86786 148.55435 26667 ft 416 kts 236°
2026-04-26 13:26 -35.88443 148.52505 27180 ft 419 kts 236°
2026-04-26 13:26 -35.90112 148.49547 27685 ft 421 kts 236°
2026-04-26 13:27 -35.91790 148.46571 28163 ft 424 kts 236°
2026-04-26 13:27 -35.93478 148.43574 28685 ft 426 kts 236°
2026-04-26 13:27 -35.94598 148.41583 28998 ft 428 kts 236°
2026-04-26 13:27 -35.96877 148.37531 29633 ft 431 kts 235°
2026-04-26 13:28 -35.98009 148.35517 29938 ft 433 kts 235°
2026-04-26 13:28 -35.99731 148.32449 30366 ft 436 kts 235°
2026-04-26 13:28 -36.01462 148.29363 30746 ft 439 kts 235°
2026-04-26 13:28 -36.03202 148.26259 31152 ft 440 kts 235°
2026-04-26 13:29 -36.04951 148.23135 31545 ft 442 kts 236°
2026-04-26 13:29 -36.06697 148.20013 31960 ft 444 kts 236°
2026-04-26 13:29 -36.08458 148.16862 32287 ft 445 kts 236°
2026-04-26 13:30 -36.11948 148.10619 32333 ft 439 kts 236°
2026-04-26 13:30 -36.15426 148.04402 32328 ft 439 kts 236°
2026-04-26 13:31 -36.18893 147.98193 32326 ft 438 kts 236°
2026-04-26 13:31 -36.22356 147.91982 32328 ft 438 kts 236°
2026-04-26 13:32 -36.25811 147.85772 32327 ft 438 kts 236°
2026-04-26 13:32 -36.29262 147.79557 32323 ft 437 kts 237°
2026-04-26 13:33 -36.32705 147.73347 32327 ft 437 kts 237°
2026-04-26 13:33 -36.36110 147.67179 32327 ft 436 kts 237°
2026-04-26 13:34 -36.39533 147.60969 32330 ft 436 kts 237°
2026-04-26 13:34 -36.42952 147.54755 32317 ft 435 kts 237°
2026-04-26 13:35 -36.46363 147.48543 32321 ft 435 kts 237°
2026-04-26 13:35 -36.49773 147.42323 32322 ft 435 kts 237°
2026-04-26 13:36 -36.53177 147.36102 32317 ft 435 kts 237°
2026-04-26 13:36 -36.56580 147.29872 32316 ft 436 kts 238°
2026-04-26 13:37 -36.59987 147.23622 32318 ft 436 kts 238°
2026-04-26 13:37 -36.63391 147.17368 32307 ft 437 kts 238°
2026-04-26 13:38 -36.66796 147.11098 32307 ft 437 kts 238°
2026-04-26 13:38 -36.70205 147.04813 32312 ft 438 kts 238°
2026-04-26 13:39 -36.73615 146.98510 32315 ft 439 kts 238°
2026-04-26 13:39 -36.77008 146.92228 32310 ft 439 kts 238°
2026-04-26 13:40 -36.80422 146.85894 32312 ft 440 kts 238°
2026-04-26 13:40 -36.83840 146.79542 32313 ft 441 kts 238°
2026-04-26 13:41 -36.87260 146.73175 32309 ft 442 kts 238°
2026-04-26 13:41 -36.90682 146.66790 32304 ft 442 kts 238°
2026-04-26 13:42 -36.94100 146.60402 32299 ft 442 kts 238°
2026-04-26 13:42 -36.97522 146.53996 32296 ft 442 kts 238°
2026-04-26 13:43 -37.00937 146.47587 32296 ft 442 kts 238°
2026-04-26 13:43 -37.04342 146.41188 32284 ft 441 kts 238°
2026-04-26 13:44 -37.07734 146.34800 32282 ft 440 kts 238°
2026-04-26 13:44 -37.09418 146.31623 31871 ft 435 kts 238°
2026-04-26 13:44 -37.11074 146.28495 30995 ft 439 kts 238°
2026-04-26 13:44 -37.12767 146.25297 30243 ft 441 kts 238°
2026-04-26 13:45 -37.14459 146.22097 29621 ft 437 kts 238°
2026-04-26 13:45 -37.16125 146.18944 29082 ft 432 kts 238°
2026-04-26 13:45 -37.17773 146.15821 28509 ft 427 kts 238°
2026-04-26 13:45 -37.19408 146.12721 27944 ft 423 kts 238°
2026-04-26 13:46 -37.21022 146.09656 27392 ft 420 kts 238°
2026-04-26 13:46 -37.22622 146.06615 26836 ft 416 kts 238°
2026-04-26 13:46 -37.24208 146.03598 26289 ft 413 kts 238°
2026-04-26 13:46 -37.25781 146.00605 25758 ft 410 kts 238°
2026-04-26 13:47 -37.27342 145.97631 25227 ft 407 kts 238°
2026-04-26 13:47 -37.28895 145.94669 24703 ft 404 kts 238°
2026-04-26 13:47 -37.30434 145.91735 24180 ft 401 kts 238°
2026-04-26 13:47 -37.31972 145.88809 23550 ft 401 kts 238°
2026-04-26 13:48 -37.33501 145.85896 23017 ft 397 kts 238°
2026-04-26 13:48 -37.35014 145.83012 22528 ft 393 kts 239°
2026-04-26 13:48 -37.36508 145.80162 22055 ft 388 kts 239°
2026-04-26 13:48 -37.37984 145.77344 21592 ft 385 kts 239°
2026-04-26 13:49 -37.39446 145.74550 21125 ft 381 kts 239°
2026-04-26 13:49 -37.40897 145.71774 20673 ft 378 kts 239°
2026-04-26 13:49 -37.42334 145.69023 20234 ft 375 kts 240°
2026-04-26 13:49 -37.43765 145.66284 19792 ft 372 kts 240°
2026-04-26 13:50 -37.45089 145.63513 19290 ft 367 kts 250°
2026-04-26 13:50 -37.45913 145.60509 18899 ft 361 kts 255°
2026-04-26 13:50 -37.46723 145.57531 18504 ft 358 kts 255°
2026-04-26 13:50 -37.47519 145.54574 18032 ft 355 kts 255°
2026-04-26 13:51 -37.48301 145.51645 17620 ft 351 kts 255°
2026-04-26 13:51 -37.49074 145.48744 17215 ft 347 kts 255°
2026-04-26 13:51 -37.49836 145.45876 16824 ft 344 kts 255°
2026-04-26 13:51 -37.50589 145.43039 16443 ft 340 kts 255°
2026-04-26 13:52 -37.51334 145.40228 16065 ft 337 kts 255°
2026-04-26 13:52 -37.51585 145.39282 15929 ft 336 kts 255°
2026-04-26 13:52 -37.52354 145.36374 15519 ft 333 kts 255°
2026-04-26 13:52 -37.53082 145.33623 15148 ft 330 kts 255°
2026-04-26 13:53 -37.53805 145.30884 14762 ft 328 kts 255°
2026-04-26 13:53 -37.54519 145.28175 14401 ft 325 kts 255°
2026-04-26 13:53 -37.55221 145.25511 14034 ft 323 kts 255°
2026-04-26 13:53 -37.55928 145.22829 13622 ft 321 kts 255°
2026-04-26 13:54 -37.56627 145.20170 13243 ft 319 kts 255°
2026-04-26 13:54 -37.57319 145.17534 12865 ft 316 kts 255°
2026-04-26 13:54 -37.58015 145.14881 12501 ft 313 kts 255°
2026-04-26 13:55 -37.59358 145.09756 11788 ft 308 kts 255°
2026-04-26 13:55 -37.59814 145.08012 11550 ft 311 kts 255°
2026-04-26 13:55 -37.61387 145.01992 11005 ft 303 kts 255°
2026-04-26 13:56 -37.62039 144.99498 10862 ft 295 kts 255°
2026-04-26 13:56 -37.62667 144.97083 10711 ft 286 kts 255°
2026-04-26 13:56 -37.63276 144.94746 10573 ft 272 kts 255°
2026-04-26 13:56 -37.63855 144.92521 10330 ft 263 kts 255°
2026-04-26 13:57 -37.64412 144.90380 10076 ft 252 kts 255°
2026-04-26 13:57 -37.64955 144.88285 9737 ft 254 kts 255°
2026-04-26 13:57 -37.65513 144.86136 9412 ft 260 kts 255°
2026-04-26 13:57 -37.65919 144.83913 9091 ft 259 kts 272°
2026-04-26 13:58 -37.65814 144.81653 8819 ft 259 kts 276°
2026-04-26 13:58 -37.65695 144.79381 8559 ft 259 kts 276°
2026-04-26 13:58 -37.65568 144.77118 8302 ft 259 kts 276°
2026-04-26 13:58 -37.65435 144.74851 8025 ft 258 kts 277°
2026-04-26 13:59 -37.65299 144.72595 7750 ft 258 kts 277°
2026-04-26 13:59 -37.65162 144.70346 7477 ft 257 kts 277°
2026-04-26 13:59 -37.65022 144.68092 7182 ft 257 kts 277°
2026-04-26 14:00 -37.64604 144.61373 6335 ft 255 kts 277°
2026-04-26 14:00 -37.64464 144.59141 6061 ft 255 kts 277°
2026-04-26 14:00 -37.64384 144.57663 5857 ft 255 kts 274°
2026-04-26 14:01 -37.65088 144.54818 5425 ft 263 kts 236°
2026-04-26 14:01 -37.66497 144.53324 5139 ft 270 kts 208°
2026-04-26 14:01 -37.68282 144.52677 4864 ft 273 kts 189°
2026-04-26 14:01 -37.70195 144.52373 4569 ft 274 kts 187°
2026-04-26 14:02 -37.72059 144.52083 4285 ft 273 kts 188°
2026-04-26 14:02 -37.73924 144.51780 4129 ft 267 kts 188°
2026-04-26 14:02 -37.75734 144.51481 3992 ft 259 kts 188°
2026-04-26 14:02 -37.77496 144.51187 3848 ft 252 kts 188°
2026-04-26 14:03 -37.79210 144.50900 3705 ft 244 kts 188°
2026-04-26 14:03 -37.80874 144.50620 3562 ft 238 kts 187°
2026-04-26 14:03 -37.82493 144.50349 3414 ft 232 kts 187°
2026-04-26 14:03 -37.84065 144.50085 3258 ft 225 kts 187°
2026-04-26 14:04 -37.85588 144.49828 3149 ft 215 kts 187°
2026-04-26 14:04 -37.87018 144.49587 3013 ft 198 kts 187°
2026-04-26 14:04 -37.87756 144.49464 2925 ft 188 kts 187°
2026-04-26 14:06 -37.88759 144.49295 2709 ft 182 kts 187°
2026-04-26 14:06 -37.89988 144.49088 2553 ft 180 kts 187°
2026-04-26 14:06 -37.91224 144.48881 2319 ft 174 kts 187°
2026-04-26 14:07 -37.92375 144.48686 2092 ft 160 kts 187°
2026-04-26 14:07 -37.93438 144.48507 1919 ft 152 kts 188°
2026-04-26 14:07 -37.94475 144.48332 1724 ft 147 kts 188°
2026-04-26 14:07 -37.95474 144.48164 1495 ft 143 kts 188°
2026-04-26 14:08 -37.96443 144.48001 1310 ft 142 kts 188°
2026-04-26 14:08 -37.97228 144.47869 1155 ft 142 kts 188°
2026-04-26 14:08 -37.98206 144.47704 967 ft 142 kts 188°
2026-04-26 14:08 -37.99188 144.47538 772 ft 143 kts 188°
2026-04-26 14:09 -38.00174 144.47371 584 ft 144 kts 188°
2026-04-26 14:09 -38.01168 144.47204 389 ft 144 kts 188°
2026-04-26 14:09 -38.02172 144.47035 203 ft 145 kts 188°
2026-04-26 14:09 -38.03169 144.46860 41 ft 141 kts 187°
2026-04-26 14:10 -38.04000 144.46726 38 ft 98 kts 187°
2026-04-26 14:10 -38.04478 144.46644 39 ft 43 kts 187°
2026-04-26 14:10 -38.04618 144.46642 37 ft 13 kts 137°
2026-04-26 14:10 -38.04643 144.46760 37 ft 15 kts 97°
2026-04-26 14:11 -38.04446 144.46863 38 ft 20 kts
2026-04-26 14:11 -38.04294 144.46889 38 ft 23 kts
2026-04-26 14:11 -38.04123 144.46921 38 ft 26 kts
2026-04-26 14:12 -38.03930 144.46939 38 ft 29 kts
2026-04-26 14:12 -38.03727 144.46990 37 ft 31 kts 11°
2026-04-26 14:12 -38.03509 144.47022 38 ft 33 kts
2026-04-26 14:12 -38.03321 144.47064 39 ft 22 kts 20°